Weather History for Willimantic, CT

Change the Weather History Date:

Saturday, December 29, 2012

  Actual Average Record
Temperature  
Mean Temperature 28 °F -  
Max Temperature 36 °F 37 °F 61 °F (1984)
Min Temperature 21 °F 18 °F -3 °F (1993)
Degree Days  
Heating Degree Days 36    
Moisture  
Dew Point 25 °F    
Average Humidity 82    
Maximum Humidity 93    
Minimum Humidity 64    
Precipitation  
Precipitation 0.37 in - - ()
Sea Level Pressure  
Sea Level Pressure 29.66 in    
Wind  
Wind Speed 4 mph (NNE)    
Max Wind Speed 12 mph    
Max Gust Speed 17 mph    
Visibility 4 miles    
Events Fog , Snow    
Averages and records for this station are not official NWS values.
T = Trace of Precipitation, MM = Missing Value Source: NWS Daily Summary

Daily Weather History Graph

Daily Weather History Graph

Search for Another Location

Airport:

Trip Planner

Search our weather history database for the weather conditions in past years. The results will help you decide how hot, cold, wet, or windy it might be!

Date:

Astronomy

Dec. 29, 2012 Rise Set
Actual Time 7:15 AM EST 4:26 PM EST
Civil Twilight 6:44 AM EST 4:58 PM EST
Nautical Twilight 6:09 AM EST 5:33 PM EST
Astronomical Twilight 5:35 AM EST 6:06 PM EST
Moon 5:58 PM EST (12/29) 7:46 AM EST (12/29)
Length of Visible Light 10h 14m
Length of Day
9h 11m
Full, 98% of the Moon is Illuminated
Dec 29
Full
Jan 4
Last Quarter
Jan 11
New
Jan 18
First Quarter
Jan 26
Full

Hourly Weather History & Observations

Time (EST) Temp. Windchill Dew Point Humidity Pressure Visibility Wind Dir Wind Speed Gust Speed Precip Events Conditions
12:52 AM 24.1 °F - 19.9 °F 84% 30.04 in 10.0 mi Calm Calm - N/A   Clear
1:52 AM 21.9 °F 17.2 °F 18.0 °F 85% 30.03 in 9.0 mi NE 3.5 mph - N/A   Clear
2:52 AM 23.0 °F - 19.0 °F 85% 30.02 in 10.0 mi Calm Calm - N/A   Clear
3:52 AM 24.1 °F - 19.0 °F 81% 30.01 in 10.0 mi Calm Calm - N/A   Clear
4:52 AM 24.1 °F - 19.0 °F 81% 30.01 in 10.0 mi Calm Calm - N/A   Clear
5:52 AM 25.0 °F - 21.0 °F 85% 30.01 in 10.0 mi Calm Calm - N/A   Scattered Clouds
6:52 AM 26.1 °F - 21.9 °F 84% 29.99 in 10.0 mi Calm Calm - N/A   Overcast
7:52 AM 26.1 °F - 21.9 °F 84% 29.97 in 10.0 mi Calm Calm - N/A   Overcast
8:52 AM 27.0 °F - 21.9 °F 81% 29.95 in 10.0 mi Calm Calm - N/A   Overcast
9:52 AM 28.0 °F - 23.0 °F 81% 29.93 in 10.0 mi Calm Calm - N/A   Overcast
10:52 AM 30.9 °F - 24.1 °F 76% 29.89 in 10.0 mi Calm Calm - N/A   Overcast
11:52 AM 33.1 °F 27.7 °F 25.0 °F 72% 29.82 in 10.0 mi NNE 5.8 mph - N/A   Overcast
12:52 PM 36.0 °F 32.1 °F 25.0 °F 64% 29.75 in 10.0 mi NE 4.6 mph - N/A   Overcast
1:01 PM 35.6 °F 30.7 °F 24.8 °F 65% 29.74 in 10.0 mi NE 5.8 mph - N/A   Overcast
1:52 PM 35.1 °F 29.3 °F 24.1 °F 64% 29.71 in 4.0 mi NNE 6.9 mph - 0.00 in Snow Light Snow
1:55 PM 35.6 °F 29.2 °F 24.8 °F 65% 29.69 in 1.8 mi NE 8.1 mph - 0.00 in Snow Light Snow
2:13 PM 33.8 °F 27.7 °F 26.6 °F 75% 29.70 in 3.0 mi NE 6.9 mph - 0.00 in Snow Light Snow
2:20 PM 33.8 °F 26.4 °F 26.6 °F 75% 29.69 in 2.0 mi ENE 9.2 mph - 0.00 in Snow Light Snow
2:34 PM 32.0 °F 24.8 °F 26.6 °F 80% 29.68 in 1.2 mi NNE 8.1 mph - 0.00 in Snow Light Snow
2:52 PM 32.0 °F 25.6 °F 27.0 °F 82% 29.68 in 1.0 mi NNE 6.9 mph - 0.01 in Snow Light Snow
2:58 PM 32.0 °F 24.8 °F 26.6 °F 80% 29.67 in 0.5 mi NNE 8.1 mph - 0.00 in Snow Snow
3:15 PM 30.2 °F 23.4 °F 26.6 °F 86% 29.67 in 1.0 mi NNE 6.9 mph - 0.01 in Snow Light Snow
3:23 PM 30.2 °F 22.6 °F 26.6 °F 86% 29.66 in 1.5 mi NNE 8.1 mph 16.1 mph 0.01 in Snow Light Snow
3:52 PM 30.9 °F 21.7 °F 26.1 °F 82% 29.63 in 0.8 mi NE 11.5 mph - 0.02 in Snow Light Snow
4:10 PM 30.2 °F 21.9 °F 26.6 °F 86% 29.61 in 0.5 mi NE 9.2 mph - 0.01 in Snow Snow
4:35 PM 30.2 °F 23.4 °F 26.6 °F 86% 29.59 in 0.8 mi NNE 6.9 mph - 0.03 in Snow Light Snow
4:39 PM 30.2 °F 21.9 °F 26.6 °F 86% 29.58 in 1.0 mi NNE 9.2 mph - 0.03 in Snow Light Snow
4:52 PM 30.0 °F 21.1 °F 26.1 °F 85% 29.57 in 1.0 mi NNE 10.4 mph - 0.04 in Snow Light Snow
4:58 PM 30.2 °F 21.3 °F 26.6 °F 86% 29.55 in 0.8 mi NNE 10.4 mph - 0.00 in Snow Light Snow
5:52 PM 30.9 °F 22.8 °F 27.0 °F 85% 29.54 in 0.8 mi NNE 9.2 mph - 0.08 in Snow Light Snow
6:13 PM 30.2 °F 24.3 °F 26.6 °F 86% 29.51 in 1.0 mi NNE 5.8 mph - 0.01 in Snow Light Snow
6:20 PM 30.2 °F 22.6 °F 26.6 °F 86% 29.50 in 1.2 mi North 8.1 mph - 0.02 in Snow Light Snow
6:33 PM 30.2 °F 21.3 °F 26.6 °F 86% 29.48 in 0.5 mi NNE 10.4 mph - 0.03 in Fog , Snow Snow
6:52 PM 30.9 °F 26.2 °F 28.0 °F 89% 29.49 in 0.5 mi NNE 4.6 mph - 0.07 in Fog , Snow Snow
7:08 PM 30.2 °F 22.6 °F 28.4 °F 93% 29.47 in 0.5 mi North 8.1 mph - 0.02 in Fog , Snow Snow
8:02 PM 30.2 °F 21.9 °F 28.4 °F 93% 29.43 in 0.5 mi North 9.2 mph - 0.03 in Fog , Snow Snow
8:44 PM 32.0 °F 24.2 °F 28.4 °F 87% 29.42 in 0.8 mi NNW 9.2 mph - 0.11 in Snow Light Snow
8:52 PM 32.0 °F 25.6 °F 28.9 °F 88% 29.43 in 0.8 mi NNW 6.9 mph - 0.12 in Snow Light Snow
9:00 PM 32.0 °F 24.8 °F 28.4 °F 87% 29.42 in 1.0 mi NNW 8.1 mph - 0.01 in Snow Light Snow
9:24 PM 30.2 °F 22.6 °F 26.6 °F 86% 29.42 in 1.2 mi NNW 8.1 mph - 0.02 in Snow Light Snow
9:35 PM 30.2 °F 22.6 °F 26.6 °F 86% 29.43 in 2.0 mi NNW 8.1 mph - 0.02 in Snow Light Snow
9:52 PM 32.0 °F 24.8 °F 27.0 °F 82% 29.44 in 3.0 mi NNW 8.1 mph - 0.02 in Snow Light Snow
10:18 PM 30.2 °F 22.6 °F 26.6 °F 86% 29.45 in 2.0 mi NNW 8.1 mph - 0.00 in Snow Light Snow
10:30 PM 30.2 °F 21.9 °F 26.6 °F 86% 29.45 in 1.8 mi NNW 9.2 mph - 0.00 in Snow Light Snow
10:52 PM 30.9 °F 22.2 °F 26.1 °F 82% 29.46 in 2.0 mi NNW 10.4 mph 17.3 mph 0.01 in Snow Light Snow
11:17 PM 30.2 °F 21.9 °F 26.6 °F 86% 29.46 in 3.0 mi NNW 9.2 mph - 0.00 in Snow Light Snow
11:29 PM 30.2 °F 21.9 °F 24.8 °F 80% 29.46 in 4.0 mi NNW 9.2 mph - 0.00 in Snow Light Snow
11:52 PM 30.0 °F 21.7 °F 25.0 °F 82% 29.48 in 6.0 mi NNW 9.2 mph - 0.00 in Snow Light Snow